Tracking 30923 objects as of 1-Jul-2025
HD Live streaming from Space Station
objects crossing your sky now

SL-8 DEB

Track SL-8 DEB now!
10-day predictions


NORAD ID: 1392
Int'l Code: 1965-020AH
Perigee: 455.3 km
Apogee: 728.4 km
Inclination: 55.9 °
Period: 96.4 minutes
Semi major axis: 6962 km
RCS: 0.2042 m2 (medium)
Launch date: March 15, 1965
Source: Commonwealth of Independent States (former USSR) (CIS)
Launch site: TYURATAM MISSILE AND SPACE COMPLEX (TTMTR)

Note: This is SATELLITE DEBRIS
Your satellite tracking list
DELTA 1 DEB
Track 1 satellite(s)




NASA's NSSDC Master Catalog

Two Line Element Set (TLE):
1  1392U 65020AH  25181.55415888  .00011721  00000-0  75674-3 0  9993
2  1392  55.8636 257.3343 0196129  22.2514 338.6870 14.94239022 42750
Source of the keplerian elements: AFSPC